Location: Lake Almanor
(40.2485°N, 121.1442°W)
Time: 20:16:43
(UTC-08:00)

STARLINK-1075 - Pass Details

Date: 01 February 2020
Orbit: 349 x 351 km, 53.0° (Epoch: 21 February)

Event Time Altitude Azimuth Distance (km) Brightness Sun altitude
Rises 18:27:56 0° 308° (NW) 2,178 7.3 -12.7°
Reaches altitude 10° 18:29:58 10° 308° (NW) 1,330 6.2 -13.1°
Maximum altitude 18:32:55 82° 222° (SW) 362 2.7 -13.6°
Enters shadow 18:35:03 17° 134° (SE) 987 4.6 -14.0°
